STARLINK-11282 [DTC]

Last updated on Sun Oct 06 2024 00:02:04 GMT+0000 (Coordinated Universal Time)

1 60992U 24158C 24279.39513681 .00001349 00000+0 12242-4 0 9997 2 60992 53.1602 326.3299 0001906 128.3854 231.7338 15.76738096 5875
UTC large
Height (km)
Speed (km/s)
/
Latitude / Longitude
Inclination (degrees)
Orbital Period (minutes)
Azimuth
Elevation
Range (km)
Doppler Factor

Next 0 passes for location: London (51.5072 / 0.1276)

Sorry there are no passes over London.